Time,TemperatureF,DewpointF,PressureIn,WindDirection,WindDirectionDegrees,WindSpeedMPH,WindSpeedGustMPH,Humidity,HourlyPrecipIn,Conditions,Clouds,dailyrainin,SoftwareType,DateUTC
2013-06-05 00:02:00,50.0,49.0,30.00,WNW,302,1.0,3.0,96,0.00,,,0.00,,2013-06-05 07:02:00,
2013-06-05 00:22:00,50.0,49.0,30.00,West,261,1.0,3.0,96,0.00,,,0.00,,2013-06-05 07:22:00,
2013-06-05 00:32:00,50.0,49.0,30.00,West,278,1.0,5.0,96,0.00,,,0.00,,2013-06-05 07:32:00,
2013-06-05 00:42:00,50.0,49.0,30.00,West,278,1.0,5.0,96,0.00,,,0.00,,2013-06-05 07:42:00,
2013-06-05 00:52:00,50.0,49.0,30.00,WNW,291,2.0,3.0,96,0.00,,,0.00,,2013-06-05 07:52:00,
2013-06-05 01:02:00,50.0,49.0,30.01,SSW,207,1.0,5.0,96,0.00,,,0.00,,2013-06-05 08:02:00,
2013-06-05 01:12:00,50.0,49.0,30.01,SSW,207,1.0,5.0,96,0.00,,,0.00,,2013-06-05 08:12:00,
2013-06-05 01:22:00,50.0,49.0,30.00,North,355,1.0,3.0,97,0.00,,,0.00,,2013-06-05 08:22:00,
2013-06-05 01:32:00,50.0,49.0,30.00,West,273,1.0,5.0,97,0.00,,,0.00,,2013-06-05 08:32:00,
2013-06-05 01:42:00,50.0,49.0,30.00,West,273,1.0,5.0,97,0.00,,,0.00,,2013-06-05 08:42:00,
2013-06-05 01:52:00,50.0,49.0,30.00,West,273,1.0,5.0,97,0.00,,,0.00,,2013-06-05 08:52:00,
2013-06-05 02:02:00,49.0,48.0,30.00,West,270,1.0,2.0,97,0.00,,,0.00,,2013-06-05 09:02:00,
2013-06-05 02:12:00,49.0,48.0,30.00,West,270,1.0,2.0,97,0.00,,,0.00,,2013-06-05 09:12:00,
2013-06-05 02:22:00,49.0,48.0,30.00,WNW,283,1.0,4.0,97,0.00,,,0.00,,2013-06-05 09:22:00,
2013-06-05 02:32:00,49.0,48.0,30.00,WNW,290,1.0,2.0,97,0.00,,,0.00,,2013-06-05 09:32:00,
2013-06-05 02:42:00,49.0,48.0,30.00,WNW,290,1.0,2.0,97,0.00,,,0.00,,2013-06-05 09:42:00,
2013-06-05 02:52:00,49.0,48.0,30.00,SW,225,0.0,4.0,97,0.00,,,0.00,,2013-06-05 09:52:00,
2013-06-05 03:02:00,49.0,48.0,30.00,SW,229,1.0,3.0,98,0.00,,,0.00,,2013-06-05 10:02:00,
2013-06-05 03:12:00,49.0,48.0,30.00,SW,229,1.0,3.0,98,0.00,,,0.00,,2013-06-05 10:12:00,
2013-06-05 03:22:00,49.0,48.0,29.99,WSW,246,1.0,2.0,98,0.00,,,0.00,,2013-06-05 10:22:00,
2013-06-05 03:33:00,49.0,48.0,30.00,WSW,249,1.0,2.0,98,0.00,,,0.00,,2013-06-05 10:33:00,
2013-06-05 03:42:00,49.0,48.0,30.00,WSW,249,1.0,2.0,98,0.00,,,0.00,,2013-06-05 10:42:00,
2013-06-05 03:52:00,49.0,48.0,29.99,WSW,240,1.0,1.0,98,0.00,,,0.00,,2013-06-05 10:52:00,
2013-06-05 04:02:00,49.0,48.0,30.00,WSW,250,0.0,2.0,98,0.00,,,0.00,,2013-06-05 11:02:00,
2013-06-05 04:12:00,49.0,48.0,30.00,WSW,250,0.0,2.0,98,0.00,,,0.00,,2013-06-05 11:12:00,
2013-06-05 04:22:00,49.0,48.0,30.00,WSW,252,1.0,2.0,98,0.00,,,0.00,,2013-06-05 11:22:00,
2013-06-05 04:32:00,49.0,48.0,29.99,SSW,212,0.0,1.0,98,0.00,,,0.00,,2013-06-05 11:32:00,
2013-06-05 04:42:00,49.0,48.0,29.99,SSW,212,0.0,1.0,98,0.00,,,0.00,,2013-06-05 11:42:00,
2013-06-05 04:52:00,49.0,48.0,29.99,WSW,254,1.0,3.0,98,0.00,,,0.00,,2013-06-05 11:52:00,
2013-06-05 05:02:00,49.0,48.0,29.99,SW,227,0.0,2.0,98,0.00,,,0.00,,2013-06-05 12:02:00,
2013-06-05 05:12:00,49.0,48.0,29.99,SW,227,0.0,2.0,98,0.00,,,0.00,,2013-06-05 12:12:00,
2013-06-05 05:22:00,49.0,48.0,29.99,SW,233,0.0,1.0,98,0.00,,,0.00,,2013-06-05 12:22:00,
2013-06-05 05:32:00,49.0,48.0,29.99,SW,233,0.0,2.0,98,0.00,,,0.00,,2013-06-05 12:32:00,
2013-06-05 05:43:00,49.0,48.0,29.99,SW,233,0.0,2.0,98,0.00,,,0.00,,2013-06-05 12:43:00,
2013-06-05 05:52:00,49.0,48.0,29.99,West,260,1.0,2.0,98,0.00,,,0.00,,2013-06-05 12:52:00,
2013-06-05 06:02:00,49.0,48.0,29.99,WSW,237,1.0,3.0,98,0.00,,,0.00,,2013-06-05 13:02:00,
2013-06-05 06:12:00,49.0,48.0,29.99,WSW,237,1.0,3.0,98,0.00,,,0.00,,2013-06-05 13:12:00,
2013-06-05 06:22:00,49.0,48.0,29.99,WSW,238,1.0,2.0,98,0.00,,,0.00,,2013-06-05 13:22:00,
2013-06-05 06:32:00,49.0,48.0,30.00,WSW,245,1.0,4.0,98,0.00,,,0.00,,2013-06-05 13:32:00,
2013-06-05 06:42:00,49.0,48.0,30.00,WSW,245,1.0,4.0,98,0.00,,,0.00,,2013-06-05 13:42:00,
2013-06-05 06:52:00,49.0,48.0,30.00,WSW,254,1.0,3.0,98,0.00,,,0.00,,2013-06-05 13:52:00,
2013-06-05 07:02:00,49.0,48.0,30.00,SW,234,1.0,2.0,98,0.00,,,0.00,,2013-06-05 14:02:00,
2013-06-05 07:12:00,49.0,48.0,30.00,SW,234,1.0,2.0,98,0.00,,,0.00,,2013-06-05 14:12:00,
2013-06-05 07:22:00,49.0,48.0,30.01,WSW,251,1.0,3.0,98,0.00,,,0.00,,2013-06-05 14:22:00,
2013-06-05 07:32:00,49.0,48.0,30.01,WSW,243,1.0,2.0,98,0.01,,,0.01,,2013-06-05 14:32:00,
2013-06-05 07:42:00,49.0,48.0,30.01,WSW,243,1.0,2.0,98,0.01,,,0.01,,2013-06-05 14:42:00,
2013-06-05 07:52:00,49.0,48.0,30.01,WSW,258,1.0,4.0,98,0.01,,,0.01,,2013-06-05 14:52:00,
2013-06-05 08:02:00,50.0,50.0,30.01,SW,226,1.0,3.0,99,0.01,,,0.01,,2013-06-05 15:02:00,
2013-06-05 08:12:00,50.0,50.0,30.01,SW,226,1.0,3.0,99,0.01,,,0.01,,2013-06-05 15:12:00,
2013-06-05 08:22:00,49.0,48.0,30.02,WSW,254,1.0,3.0,98,0.01,,,0.01,,2013-06-05 15:22:00,
2013-06-05 08:33:00,50.0,50.0,30.02,SW,216,1.0,2.0,99,0.00,,,0.01,,2013-06-05 15:33:00,
2013-06-05 08:42:00,50.0,50.0,30.02,SW,216,1.0,2.0,99,0.00,,,0.01,,2013-06-05 15:42:00,
2013-06-05 08:53:00,50.0,49.0,30.03,SW,219,0.0,2.0,98,0.00,,,0.01,,2013-06-05 15:53:00,
2013-06-05 09:03:00,50.0,49.0,30.03,SW,232,1.0,4.0,98,0.00,,,0.01,,2013-06-05 16:03:00,
2013-06-05 09:12:00,50.0,49.0,30.03,SW,232,1.0,4.0,98,0.00,,,0.01,,2013-06-05 16:12:00,
2013-06-05 09:22:00,50.0,49.0,30.03,SW,232,1.0,4.0,98,0.00,,,0.01,,2013-06-05 16:22:00,
2013-06-05 09:32:00,51.0,50.0,30.03,WSW,249,1.0,4.0,98,0.00,,,0.01,,2013-06-05 16:32:00,
2013-06-05 09:42:00,51.0,50.0,30.03,WSW,249,1.0,4.0,98,0.00,,,0.01,,2013-06-05 16:42:00,
2013-06-05 09:54:00,51.0,50.0,30.03,WSW,251,1.0,3.0,97,0.00,,,0.01,,2013-06-05 16:54:00,
2013-06-05 10:02:00,52.0,51.0,30.03,WSW,248,1.0,3.0,96,0.00,,,0.01,,2013-06-05 17:02:00,
2013-06-05 10:12:00,52.0,51.0,30.03,WSW,248,1.0,3.0,96,0.00,,,0.01,,2013-06-05 17:12:00,
2013-06-05 10:22:00,53.0,51.0,30.03,WSW,246,1.0,3.0,94,0.00,,,0.01,,2013-06-05 17:22:00,
2013-06-05 10:32:00,54.0,52.0,30.03,West,263,1.0,3.0,93,0.00,,,0.01,,2013-06-05 17:32:00,
2013-06-05 10:42:00,54.0,52.0,30.03,West,263,1.0,3.0,93,0.00,,,0.01,,2013-06-05 17:42:00,
2013-06-05 10:52:00,55.0,52.0,30.03,WNW,300,1.0,3.0,90,0.00,,,0.01,,2013-06-05 17:52:00,
2013-06-05 11:02:00,56.0,52.0,30.03,SW,224,1.0,4.0,88,0.00,,,0.01,,2013-06-05 18:02:00,
2013-06-05 11:12:00,56.0,52.0,30.03,SW,224,1.0,4.0,88,0.00,,,0.01,,2013-06-05 18:12:00,
2013-06-05 11:22:00,59.0,54.0,30.03,West,259,2.0,5.0,84,0.00,,,0.01,,2013-06-05 18:22:00,
2013-06-05 11:32:00,59.0,53.0,30.03,WSW,254,2.0,6.0,81,0.00,,,0.01,,2013-06-05 18:32:00,
2013-06-05 11:42:00,59.0,53.0,30.03,WSW,254,2.0,6.0,81,0.00,,,0.01,,2013-06-05 18:42:00,
2013-06-05 11:52:00,61.0,54.0,30.03,West,267,2.0,4.0,77,0.00,,,0.01,,2013-06-05 18:52:00,
2013-06-05 12:02:00,63.0,55.0,30.03,WSW,244,1.0,5.0,74,0.00,,,0.01,,2013-06-05 19:02:00,
2013-06-05 12:12:00,63.0,55.0,30.03,WSW,244,1.0,5.0,74,0.00,,,0.01,,2013-06-05 19:12:00,
2013-06-05 12:23:00,65.0,55.0,30.02,West,271,2.0,4.0,71,0.00,,,0.01,,2013-06-05 19:23:00,
2013-06-05 12:32:00,66.0,54.0,30.02,West,269,3.0,7.0,66,0.00,,,0.01,,2013-06-05 19:32:00,
2013-06-05 12:42:00,66.0,54.0,30.02,West,269,3.0,7.0,66,0.00,,,0.01,,2013-06-05 19:42:00,
2013-06-05 12:52:00,67.0,55.0,30.02,WSW,257,3.0,6.0,65,0.00,,,0.01,,2013-06-05 19:52:00,
2013-06-05 13:02:00,69.0,55.0,30.01,West,270,2.0,6.0,61,0.00,,,0.01,,2013-06-05 20:02:00,
2013-06-05 13:12:00,69.0,55.0,30.01,West,270,2.0,6.0,61,0.00,,,0.01,,2013-06-05 20:12:00,
2013-06-05 13:22:00,70.0,55.0,30.01,WNW,285,2.0,5.0,60,0.00,,,0.01,,2013-06-05 20:22:00,
2013-06-05 13:32:00,71.0,55.0,30.01,SW,229,2.0,5.0,58,0.00,,,0.01,,2013-06-05 20:32:00,
2013-06-05 13:42:00,72.0,56.0,30.00,SSW,211,2.0,6.0,57,0.00,,,0.01,,2013-06-05 20:42:00,
2013-06-05 13:52:00,72.0,56.0,30.00,SSW,211,2.0,6.0,57,0.00,,,0.01,,2013-06-05 20:52:00,
2013-06-05 14:02:00,73.0,55.0,30.00,WNW,285,2.0,6.0,54,0.00,,,0.01,,2013-06-05 21:02:00,
2013-06-05 14:12:00,73.0,55.0,30.00,WNW,285,2.0,6.0,54,0.00,,,0.01,,2013-06-05 21:12:00,
2013-06-05 14:22:00,72.0,55.0,30.00,WNW,286,2.0,6.0,56,0.00,,,0.01,,2013-06-05 21:22:00,
2013-06-05 14:33:00,72.0,55.0,30.00,WNW,286,2.0,6.0,56,0.00,,,0.01,,2013-06-05 21:33:00,
2013-06-05 14:43:00,72.0,55.0,30.00,WNW,286,2.0,6.0,56,0.00,,,0.01,,2013-06-05 21:43:00,
2013-06-05 14:53:00,72.0,55.0,30.00,WNW,286,2.0,6.0,56,0.00,,,0.01,,2013-06-05 21:53:00,
2013-06-05 15:02:00,72.0,55.0,30.00,SSW,211,3.0,6.0,55,0.00,,,0.01,,2013-06-05 22:02:00,
2013-06-05 15:12:00,72.0,55.0,30.00,SSW,211,3.0,6.0,55,0.00,,,0.01,,2013-06-05 22:12:00,
2013-06-05 15:22:00,73.0,55.0,29.99,SW,227,2.0,5.0,54,0.00,,,0.01,,2013-06-05 22:22:00,
2013-06-05 15:32:00,73.0,55.0,29.99,WSW,255,3.0,6.0,53,0.00,,,0.01,,2013-06-05 22:32:00,
2013-06-05 15:42:00,72.0,54.0,29.99,WNW,296,3.0,8.0,54,0.00,,,0.01,,2013-06-05 22:42:00,
2013-06-05 15:52:00,72.0,54.0,29.99,WNW,296,3.0,8.0,54,0.00,,,0.01,,2013-06-05 22:52:00,
2013-06-05 16:02:00,73.0,55.0,29.98,WSW,258,3.0,8.0,54,0.00,,,0.01,,2013-06-05 23:02:00,
2013-06-05 16:12:00,73.0,55.0,29.98,WSW,258,3.0,8.0,54,0.00,,,0.01,,2013-06-05 23:12:00,
2013-06-05 16:22:00,73.0,55.0,29.98,WNW,289,3.0,6.0,54,0.00,,,0.01,,2013-06-05 23:22:00,
2013-06-05 16:32:00,72.0,54.0,29.98,WNW,293,2.0,6.0,54,0.00,,,0.01,,2013-06-05 23:32:00,
2013-06-05 16:42:00,72.0,54.0,29.98,WNW,293,2.0,6.0,54,0.00,,,0.01,,2013-06-05 23:42:00,
2013-06-05 16:52:00,72.0,54.0,29.97,South,184,3.0,7.0,54,0.00,,,0.01,,2013-06-05 23:52:00,
2013-06-05 17:02:00,71.0,54.0,29.97,SSW,206,3.0,7.0,56,0.00,,,0.01,,2013-06-06 00:02:00,
2013-06-05 17:12:00,71.0,54.0,29.97,SSW,206,3.0,7.0,56,0.00,,,0.01,,2013-06-06 00:12:00,
2013-06-05 17:22:00,71.0,54.0,29.97,WNW,293,2.0,4.0,56,0.00,,,0.01,,2013-06-06 00:22:00,
2013-06-05 17:32:00,70.0,55.0,29.97,WNW,294,3.0,7.0,58,0.00,,,0.01,,2013-06-06 00:32:00,
2013-06-05 17:42:00,70.0,55.0,29.97,WNW,294,3.0,7.0,58,0.00,,,0.01,,2013-06-06 00:42:00,
2013-06-05 17:52:00,69.0,54.0,29.97,WNW,284,2.0,7.0,59,0.00,,,0.01,,2013-06-06 00:52:00,
2013-06-05 18:02:00,68.0,54.0,29.96,SW,227,3.0,7.0,60,0.00,,,0.01,,2013-06-06 01:02:00,
2013-06-05 18:12:00,68.0,54.0,29.96,SW,227,3.0,7.0,60,0.00,,,0.01,,2013-06-06 01:12:00,
2013-06-05 18:22:00,66.0,53.0,29.96,WSW,252,3.0,6.0,63,0.00,,,0.01,,2013-06-06 01:22:00,
2013-06-05 18:32:00,65.0,53.0,29.96,WSW,242,2.0,5.0,66,0.00,,,0.01,,2013-06-06 01:32:00,
2013-06-05 18:42:00,65.0,53.0,29.96,WSW,242,2.0,5.0,66,0.00,,,0.01,,2013-06-06 01:42:00,
2013-06-05 18:53:00,64.0,53.0,29.96,SSW,194,1.0,7.0,67,0.00,,,0.01,,2013-06-06 01:53:00,
2013-06-05 19:01:00,63.0,52.0,29.96,WNW,302,2.0,5.0,68,0.00,,,0.01,,2013-06-06 02:01:00,
2013-06-05 19:12:00,63.0,52.0,29.96,WNW,302,2.0,5.0,68,0.00,,,0.01,,2013-06-06 02:12:00,
2013-06-05 19:22:00,62.0,52.0,29.96,WNW,294,2.0,4.0,70,0.00,,,0.01,,2013-06-06 02:22:00,
2013-06-05 19:32:00,61.0,52.0,29.96,West,269,2.0,5.0,72,0.00,,,0.01,,2013-06-06 02:32:00,
2013-06-05 19:42:00,61.0,52.0,29.96,West,269,2.0,5.0,72,0.00,,,0.01,,2013-06-06 02:42:00,
2013-06-05 19:52:00,61.0,52.0,29.96,West,269,2.0,5.0,72,0.00,,,0.01,,2013-06-06 02:52:00,
2013-06-05 20:02:00,59.0,51.0,29.96,West,269,1.0,4.0,76,0.00,,,0.01,,2013-06-06 03:02:00,
2013-06-05 20:12:00,59.0,51.0,29.96,West,269,1.0,4.0,76,0.00,,,0.01,,2013-06-06 03:12:00,
2013-06-05 20:22:00,58.0,52.0,29.97,West,267,2.0,4.0,79,0.00,,,0.01,,2013-06-06 03:22:00,
2013-06-05 20:33:00,56.0,51.0,29.97,SW,223,2.0,4.0,82,0.00,,,0.01,,2013-06-06 03:33:00,
2013-06-05 20:43:00,56.0,51.0,29.97,SW,223,2.0,4.0,82,0.00,,,0.01,,2013-06-06 03:43:00,
2013-06-05 20:52:00,55.0,50.0,29.97,West,265,2.0,4.0,84,0.00,,,0.01,,2013-06-06 03:52:00,
2013-06-05 21:02:00,53.0,49.0,29.97,WSW,248,2.0,4.0,87,0.00,,,0.01,,2013-06-06 04:02:00,
2013-06-05 21:13:00,53.0,49.0,29.97,WSW,248,2.0,4.0,87,0.00,,,0.01,,2013-06-06 04:13:00,
2013-06-05 21:23:00,52.0,49.0,29.98,West,265,2.0,5.0,90,0.00,,,0.01,,2013-06-06 04:23:00,
2013-06-05 21:33:00,52.0,49.0,29.98,West,279,2.0,4.0,91,0.00,,,0.01,,2013-06-06 04:33:00,
2013-06-05 21:42:00,52.0,49.0,29.98,West,279,2.0,4.0,91,0.00,,,0.01,,2013-06-06 04:42:00,
2013-06-05 21:52:00,51.0,49.0,29.98,West,266,2.0,4.0,93,0.00,,,0.01,,2013-06-06 04:52:00,
2013-06-05 22:02:00,51.0,49.0,29.98,WNW,288,2.0,4.0,94,0.00,,,0.01,,2013-06-06 05:02:00,
2013-06-05 22:12:00,51.0,49.0,29.98,WNW,288,2.0,4.0,94,0.00,,,0.01,,2013-06-06 05:12:00,
2013-06-05 22:22:00,50.0,49.0,29.99,SW,236,2.0,4.0,95,0.00,,,0.01,,2013-06-06 05:22:00,
2013-06-05 22:32:00,50.0,49.0,30.00,SSW,209,3.0,6.0,95,0.00,,,0.01,,2013-06-06 05:32:00,
2013-06-05 22:42:00,50.0,49.0,30.00,SSW,209,3.0,6.0,95,0.00,,,0.01,,2013-06-06 05:42:00,
2013-06-05 22:52:00,50.0,49.0,29.99,West,259,1.0,4.0,95,0.00,,,0.01,,2013-06-06 05:52:00,
2013-06-05 23:02:00,50.0,49.0,29.99,WNW,293,1.0,3.0,96,0.00,,,0.01,,2013-06-06 06:02:00,
2013-06-05 23:12:00,50.0,49.0,29.99,WNW,293,1.0,3.0,96,0.00,,,0.01,,2013-06-06 06:12:00,
2013-06-05 23:22:00,50.0,49.0,30.00,SW,232,1.0,4.0,96,0.00,,,0.01,,2013-06-06 06:22:00,
2013-06-05 23:32:00,50.0,49.0,29.99,SW,234,1.0,4.0,96,0.00,,,0.01,,2013-06-06 06:32:00,
2013-06-05 23:42:00,50.0,49.0,29.99,SW,234,1.0,4.0,96,0.00,,,0.01,,2013-06-06 06:42:00,
2013-06-05 23:52:00,49.0,48.0,29.99,SW,215,1.0,3.0,96,0.00,,,0.01,,2013-06-06 06:52:00,